CZ-6A DEB, 54511

Orbit data source: Space-Track

CZ-6A DEB, 54511 is space debris in SSO originally from a launch on Fri, 11 Nov 2022 UTC launched from the Taiyaun Space Center, China (TSC). Debris objects in space refer to the collection of defunct objects orbiting the Earth. Examples of debris include non-operational satellites, rocket bodies, and fragments generated from explosions, collisions, or faulty payload assembly.

Loading next visibility...
Identifier
54511, 2022-151JP
Orbit
SSO
Country
Flag of CNCN / PRC
Related business
Manufacturer
SAST
Mission
Spacecraft
Bus & Motor
Unknown
Mass
Unknown
Launch date (UTC)
2022-11-11 (4 years ago)
Launch vehicle
Unknown
Launch site
Taiyaun Space Center, China (TSC)
Object type
Payload
Rocket body
Debris
Shape & HBR
Unknown shape, 0.3 m
Radar Cross Section
Medium (>0.1 m² and <1 m²)

Expand to show TLE details & history
Last TLE update: 12 hours ago

TLE from 12 hours ago
0 CZ-6A DEB
1 54511U 22151JP  26264.32921022  .00000405  00000-0  31006-3 0  9990
2 54511  98.9192 230.8030 0130041 188.2483 171.6541 13.94942955196119
Epoch: 2026-09-21T07:54Z
TLE epoch observation values (Epoch: 2026-09-21T07:54:03.763Z)
Latitude
-0.00011°
Longitude
112.07674°
Altitude
1,008.067 km
Speed
7.3 km/s
True Right ascension
15h 23m 12s
True Declination
0° 00' 00"
Sunlit
Object was in daylight at epoch
Visualization orbit readout
Latitude
Unknown
Longitude
Unknown
Altitude
Unknown
Speed
Unknown
Apparent Right ascension
Unknown
Apparent Declination
Unknown
Sunlit
N/A
Visualization observer readout
Local Sidereal Time
12:52:33
Azimuth
Unknown
Elevation
Unknown
Doppler factor
Unknown
Orbital elements
Apogee altitude
1,003.318 km
Perigee altitude
813.804 km
Semi-major axis
7,286.698 km
Eccentricity
0.013
Inclination
98.9192°
RAAN
230.803°
Arg. of periapsis
188.2483°
True anomaly
171.86697°
Mean anomaly
171.6541°
Eccentric anomaly
171.76087°
Mean motion
3.48937 °/min
Orbital period
103.17 mins
BSTAR
0.00031006
Loading maneuver chart data...
Computing Atmospheric mass density...
Loading historical data...
Loading historical data...
Loading historical data...
Loading historical data...
Loading historical data...
Loading historical data...
Loading historical data...

Documentation

Showing up to 5 results
|